Dewpoint
43 45 45 45 45 45 46 46 45 45 45 45 45 45 46 46 47 45 43 44 39 32 35 39 39 39 41 42 38 37 39 36 35 35 34 32 32 34 34 34 34 34 32 32 33 31 29 36 31 26 30 30 28 28
42 44 44 45 44 44 44 45 45 44 45 45 45 45 46 46 46 46 41 44 43 36 35 41 39 40 41 42 41 39 39 36 40 37 35 35 32 33 34 31 35 33 36 33 34 33 35 36 35 34 31 28 28 26
41 42 43 44 44 44 44 44 44 44 45 45 45 46 46 46 46 45 41 43 42 38 35 37 37 41 43 44 45 38 37 40 39 41 37 35 32 35 31 33 33 35 37 35 35 37 36 31 30 31 32 30 26 21
40 41 41 42 44 44 44 44 45 45 45 44 44 45 45 45 45 45 41 42 40 37 31 33 38 37 40 44 44 43 41 42 41 39 33 32 32 37 33 36 35 35 36 35 35 35 34 36 34 25 21 21 20 21
41 40 41 41 41 43 44 44 44 44 45 45 45 45 45 45 45 44 43 42 42 35 31 32 35 37 39 42 42 43 41 39 35 32 32 31 34 35 35 35 33 35 34 34 32 37 35 35 31 25 23 24 29 32
41 41 41 41 41 41 43 44 44 44 45 45 45 45 44 44 45 43 37 42 44 41 31 28 35 34 37 39 40 40 40 39 35 32 32 33 37 35 30 30 34 36 36 36 35 36 36 35 31 31 31 32 33 33
40 41 41 42 41 41 41 44 44 44 44 43 43 44 45 44 44 37 33 37 43 41 34 30 28 34 37 37 37 37 39 38 36 33 32 33 33 36 31 29 31 33 35 36 30 32 30 30 30 32 33 33 33 32
41 42 42 42 42 42 41 43 43 43 42 44 44 44 44 45 44 39 39 43 44 37 36 29 27 31 37 33 33 37 34 35 33 33 32 32 33 33 27 30 30 24 29 31 30 31 31 31 31 33 34 32 30 30
42 43 44 44 44 44 42 43 43 43 43 44 44 44 41 38 33 37 44 44 41 36 31 29 23 24 36 34 34 34 35 29 34 29 30 32 29 25 27 28 29 29 27 29 32 35 33 32 31 31 31 30 28 28
42 44 44 45 44 43 43 43 43 43 43 43 39 35 30 34 42 40 37 34 32 32 32 28 28 27 32 32 30 29 30 27 21 26 32 29 26 28 28 28 27 30 31 32 31 32 32 33 31 29 28 27 27 26
42 43 43 43 42 43 43 43 43 43 41 36 27 28 36 39 35 33 30 29 28 26 29 29 29 28 31 24 23 26 24 23 20 21 23 23 22 25 27 29 31 32 31 31 30 31 30 29 28 27 27 27 26 26
42 43 43 43 43 43 44 42 42 38 35 33 35 37 36 33 30 25 25 27 23 23 27 28 27 30 31 30 26 27 22 24 19 26 23 18 23 26 29 30 32 33 32 32 32 31 30 28 28 27 28 28 28 29
41 42 43 43 43 42 42 41 40 39 38 35 30 31 25 25 14 15 15 22 19 26 29 30 27 30 31 29 26 26 21 18 27 18 17 21 25 30 30 30 30 32 32 32 32 31 31 29 29 28 27 26 26 25
40 41 42 41 41 41 41 40 40 39 32 27 22 18 20 17 19 22 22 23 26 28 31 29 28 26 25 26 24 18 23 25 20 14 16 21 28 30 29 30 29 29 30 29 29 29 28 26 21 18 16 17 17 18
37 39 39 41 41 41 41 41 39 36 30 24 23 14 21 24 26 26 27 29 29 32 30 28 24 25 26 24 26 24 21 19 21 19 22 24 31 29 28 28 28 28 26 27 28 26 24 21 22 21 19 21 24 16
37 35 34 39 41 41 42 40 34 32 30 27 26 23 27 27 28 28 28 30 32 31 30 28 26 24 22 24 23 19 20 16 19 24 27 31 30 29 29 29 28 27 27 26 26 26 24 21 22 24 23 22 14 15
33 29 36 39 40 39 40 30 27 26 26 26 26 25 24 23 23 28 31 31 33 29 26 28 22 18 21 20 19 22 17 21 28 28 29 28 28 28 28 28 26 27 26 25 25 25 24 23 23 23 22 23 22 22
29 32 39 39 39 32 31 29 27 27 27 29 23 26 25 26 28 30 31 33 32 31 29 25 25 21 16 17 16 22 27 28 25 26 28 27 27 27 27 26 26 26 25 24 22 21 21 19 19 19 21 21 19 19
33 36 37 39 37 27 23 24 26 23 25 26 26 26 26 26 29 28 32 33 33 32 27 25 20 20 19 26 20 20 24 23 26 27 27 28 26 24 24 26 25 24 23 22 23 21 20 21 20 19 19 18 15 16
36 36 37 38 35 26 24 25 28 25 26 25 26 25 26 25 26 23 25 25 24 23 19 19 21 20 27 27 22 23 22 26 26 24 24 24 25 26 24 23 22 24 21 20 19 18 17 16 18 19 17 15 13 13
33 31 35 33 28 28 26 24 23 24 24 24 26 26 24 25 24 23 24 24 19 17 18 23 28 24 25 21 23 25 26 25 23 23 24 22 22 24 23 23 23 20 17 14 13 10 12 11 13 16 8 7 8 9
31 35 30 30 26 25 24 25 23 25 24 25 24 24 21 15 17 21 25 19 18 19 21 28 28 24 21 22 20 25 25 28 27 25 24 24 24 23 21 19 17 11 14 12 14 8 9 12 12 12 5 3 5 8
32 29 26 24 17 15 17 26 21 22 21 23 24 23 21 19 23 26 17 23 21 20 28 29 29 27 23 22 24 24 23 25 24 24 22 21 21 22 21 18 17 15 11 10 11 8 6 5 8 1 0 2 7 4
32 24 17 18 17 8 21 17 23 22 22 22 21 16 19 21 27 25 22 19 19 28 28 29 27 24 23 24 19 18 19 21 21 19 20 20 17 14 15 14 13 11 11 11 9 4 3 -4 -2 2 -4 -2 3 1
17 14 15 7 16 11 8 10 16 17 11 16 14 14 19 24 15 14 15 14 26 27 27 27 26 23 19 14 14 18 23 21 19 16 15 16 15 14 13 13 11 9 10 5 -2 -5 -6 -11 -9 -7 -6 -8 -2 -6
14 11 12 13 8 13 14 7 7 8 12 10 13 19 19 13 7 8 15 14 13 23 25 25 23 19 19 21 19 17 17 21 19 16 15 16 15 12 8 8 4 4 6 1 -2 -7 -6 -7 -8 -5 -6 -6 -6 -6
10 9 22 23 21 22 15 17 21 14 6 6 12 7 7 3 2 11 16 18 19 18 24 24 24 23 21 20 19 18 18 18 16 15 15 15 14 14 11 6 2 4 6 1 -4 -6 -6 -7 -3 -9 -10 -12 -12 -9
17 20 14 18 18 21 11 11 9 9 13 19 15 6 7 6 6 14 19 18 19 24 23 22 23 23 22 19 15 14 13 13 13 13 12 11 8 4 2 5 6 9 -1 -6 -7 -12 -10 -9 -6 -7 -9 -8 -10 -13
19 23 19 10 13 17 14 12 14 19 21 19 11 8 10 17 22 16 19 17 21 23 20 16 10 13 13 12 10 12 13 13 8 0 -4 -6 -6 -0 -4 -2 -1 -4 -7 -3 3 -3 -1 -1 1 -2 -5 -3 -11 -16
15 23 14 7 10 13 16 19 15 15 22 20 21 22 24 25 22 17 18 19 19 16 8 14 13 14 12 12 6 2 -3 -5 -1 4 1 -3 1 -2 -4 -5 -5 -9 -11 -8 -7 -2 11 6 3 -5 -5 -6 -11 -10
19 15 12 12 8 12 16 23 16 13 12 14 11 16 21 23 26 21 15 12 16 15 14 10 4 8 11 9 8 5 2 -2 -8 -4 -4 -4 -1 5 1 -2 -7 -11 -10 -9 -10 -10 -7 -3 -8 -10 -10 -12 -15 -12
9 8 9 10 19 24 25 10 8 10 9 12 13 17 18 16 18 20 21 19 15 15 8 13 12 11 4 7 3 0 5 4 0 1 2 2 1 -1 -1 -3 -7 -4 -6 -10 -12 -11 -9 -1 1 -7 -11 -12 -15 -16
17 11 4 13 19 20 22 14 14 12 10 11 10 11 14 15 14 14 17 23 24 21 19 18 12 14 10 10 6 1 3 -0 -3 8 5 5 0 -2 -6 -9 -7 -5 -3 -11 -14 -12 -9 -5 -8 -2 -2 -4 -8 -13
Lifted_Index
8 7 7 6 6 5 5 5 6 7 8 9 10 10 10 10 10 11 12 12 12 11 11 10 9 7 6 5 4 4 4 3 3 2 2 2 2 1 1 2 2 1 1 1 1 1 2 3 3 3 4 4 4 5
8 8 7 6 6 5 4 4 5 6 6 7 8 8 8 9 9 10 11 12 12 11 11 10 9 8 7 6 5 5 4 4 3 3 3 2 2 2 2 2 2 2 2 1 1 2 2 3 3 4 4 4 4 5
9 8 8 7 6 4 3 3 3 3 4 4 5 5 5 6 7 8 10 11 11 11 11 11 10 9 9 8 7 6 5 5 5 4 4 3 3 3 3 2 2 3 2 2 2 2 3 3 4 4 4 4 5 5
9 9 8 7 6 5 3 2 2 2 3 3 3 3 3 4 4 6 7 9 10 10 11 10 10 10 9 9 8 8 7 7 6 5 4 4 4 4 4 3 3 3 3 3 3 3 3 3 4 4 4 4 5 5
9 9 9 8 7 6 4 3 2 2 2 2 3 3 2 2 3 4 5 6 7 8 9 9 10 9 9 9 8 8 8 8 7 6 5 5 5 5 4 4 4 4 4 3 3 3 4 4 4 4 4 4 6 6
9 9 9 8 7 6 5 3 2 2 2 2 2 2 2 2 2 3 3 4 5 5 6 7 8 8 8 8 8 8 8 8 8 7 7 7 7 6 5 5 5 5 5 4 4 4 4 4 4 4 4 5 6 7
9 9 8 8 7 6 5 4 2 1 1 2 2 1 1 1 2 2 2 2 2 3 4 5 6 6 6 7 7 8 8 8 8 7 7 7 7 7 6 6 6 6 6 5 5 5 4 4 4 5 5 6 7 8
8 8 7 7 6 5 5 4 2 1 1 1 1 1 1 1 1 1 1 1 1 2 3 4 4 4 5 5 6 6 6 6 6 6 7 6 6 6 6 6 7 7 6 6 5 5 4 4 5 5 6 7 7 8
7 7 7 6 5 5 4 3 2 1 1 1 1 1 1 1 1 1 1 1 2 2 2 3 3 3 3 3 4 4 4 4 4 5 6 6 6 6 6 6 6 6 6 5 5 5 4 5 5 6 7 7 8 8
7 7 6 6 5 5 4 4 3 2 2 2 2 1 1 2 2 1 1 1 2 2 2 2 2 2 2 2 2 2 2 3 3 4 5 5 6 6 6 6 6 6 5 5 5 5 5 6 6 7 7 8 8 8
6 6 6 6 5 5 4 4 3 3 2 2 2 2 2 2 2 1 1 1 2 2 2 1 1 1 1 1 1 2 2 2 2 3 4 4 6 6 6 6 5 5 5 5 5 6 6 7 7 7 8 8 8 8
6 6 6 5 4 4 3 3 3 3 3 3 2 2 2 2 1 1 1 1 1 2 2 1 1 1 2 2 2 2 2 2 2 3 3 4 5 5 4 4 4 4 4 5 5 6 7 7 7 8 8 8 8 8
6 6 5 5 4 3 3 3 3 3 2 2 2 2 2 1 1 1 1 1 1 1 2 1 1 2 2 2 2 2 2 2 3 3 3 3 3 3 3 3 3 4 4 5 6 6 7 7 8 8 8 8 8 7
6 6 5 5 4 4 3 3 3 3 2 2 2 1 1 1 1 1 1 1 1 2 2 2 2 2 2 2 2 2 2 2 2 3 3 3 3 3 3 3 4 4 5 5 6 7 7 7 8 8 7 7 7 7
7 6 6 5 5 5 4 4 4 4 3 2 2 2 1 1 1 1 2 2 2 2 2 2 2 2 2 2 2 2 2 3 3 3 3 3 3 3 3 4 4 5 5 6 6 7 7 7 7 7 7 7 8 8
7 7 6 5 5 5 5 5 5 5 4 3 3 2 2 2 2 2 3 3 4 4 3 3 3 3 3 3 3 3 3 3 3 3 4 4 4 4 4 4 4 5 5 6 6 6 6 6 7 7 7 8 8 8
8 7 6 6 5 5 5 5 5 5 5 4 3 3 3 3 3 4 4 4 5 5 5 4 4 4 4 4 3 3 3 3 4 4 3 3 4 4 4 4 4 4 5 5 6 6 6 7 7 7 8 8 8 9
8 7 6 6 5 5 5 5 5 5 5 4 4 4 4 4 4 4 5 5 5 5 5 5 5 4 4 4 4 4 4 3 3 3 3 3 3 4 4 4 5 5 5 6 6 7 7 8 8 8 9 9 10 10
9 8 7 6 5 5 5 5 5 5 5 4 4 4 4 4 4 5 5 5 5 5 5 4 4 4 4 4 3 3 3 3 3 3 3 3 4 4 5 5 6 6 6 7 7 8 8 9 10 10 11 11 12 12
9 9 8 7 6 6 6 6 6 6 5 5 5 4 4 4 5 5 5 5 5 4 4 4 4 4 3 3 3 3 3 4 4 4 4 5 6 6 6 7 7 7 8 8 8 9 10 10 11 12 13 13 13 13
10 10 9 8 8 7 7 7 7 6 6 6 6 5 5 5 5 5 5 5 5 5 4 4 4 4 4 4 4 4 4 5 5 6 6 7 7 7 8 8 8 8 9 9 10 11 11 12 13 14 14 14 14 14
10 10 9 9 8 8 8 7 7 7 7 7 7 6 6 6 6 6 6 6 6 5 5 5 5 5 5 5 5 5 5 5 6 6 7 7 8 8 8 8 9 9 10 11 11 12 13 14 15 15 15 15 15 15
10 10 10 9 9 9 8 8 8 8 7 7 7 7 7 7 7 7 7 7 7 7 7 6 6 6 6 6 6 6 6 6 6 7 7 8 8 8 9 9 10 11 11 12 13 14 14 15 15 16 16 15 15 15
10 10 9 9 9 9 8 8 8 8 8 8 8 8 8 8 8 7 7 7 8 8 8 7 7 7 7 7 7 7 7 7 7 8 8 8 9 9 10 10 11 12 13 13 14 14 15 15 16 16 16 15 15 15
9 9 9 9 9 8 8 8 8 8 8 8 8 8 8 8 7 7 7 7 8 8 8 8 7 7 7 7 8 8 8 8 8 9 9 9 10 10 11 12 12 13 14 14 14 15 15 16 16 16 15 15 15 14
8 8 8 8 8 8 8 7 8 8 8 8 8 8 8 8 7 7 7 7 8 8 8 8 7 7 8 8 9 9 9 9 9 10 10 11 11 12 12 12 13 14 14 15 15 15 15 16 16 16 15 15 15 14
9 9 8 9 9 8 8 8 8 8 8 8 8 8 8 7 7 7 8 8 8 8 8 8 8 8 9 9 10 10 10 11 11 11 11 12 12 13 13 13 13 14 15 15 16 16 16 16 16 16 16 15 14 13
9 9 9 8 9 8 8 7 7 7 8 8 8 8 7 7 7 8 8 8 8 8 8 9 9 10 10 10 11 11 11 11 11 11 11 12 12 13 14 14 15 15 16 16 16 16 17 16 16 16 16 15 14 13
9 9 9 8 8 8 8 8 8 8 8 8 8 8 8 8 8 8 9 9 9 9 9 10 11 11 11 11 11 11 11 11 11 10 10 11 12 13 15 15 16 16 16 17 17 17 17 17 17 17 16 15 14 13
9 9 9 9 8 8 8 8 8 9 9 9 9 8 8 8 9 9 9 9 9 9 10 11 11 11 11 11 11 11 11 11 11 10 10 11 13 14 15 15 16 16 17 17 17 17 17 17 17 17 15 14 13 13
9 9 9 8 9 9 9 9 9 9 9 9 9 9 8 8 8 9 9 9 10 10 10 11 11 11 11 11 11 11 11 12 12 12 12 13 14 15 15 16 16 17 17 17 17 17 17 17 17 16 15 14 13 12
10 9 9 9 9 9 10 10 10 9 9 9 9 9 9 9 9 9 9 9 10 10 10 10 11 11 11 11 12 12 12 12 12 13 14 15 15 16 16 16 17 17 17 17 17 17 17 17 17 16 15 13 13 12
10 10 9 9 9 9 10 10 10 9 10 10 10 9 9 9 9 9 9 9 9 10 10 10 11 11 12 12 12 12 12 13 13 14 15 15 16 16 16 16 17 17 17 17 17 17 17 17 17 16 15 13 13 12